Regional Weather Roundup
Issued by NWS

Home | Current Version | Previous Version | Text Only | Print | Product List | Glossary Off
Versions: 1 2 3 4 5 6 7 8 9 10 11 12 13 14 15 16 17 18 19 20 21 22 23 24 25 26 27 28 29 30 31 32 33 34 35 36 37 38 39 40 41 42 43 44 45 46 47 48 49 50

000
ASUS45 KBOU 030607
RWRCO

WEATHER ROUNDUP FOR COLORADO
NATIONAL WEATHER SERVICE DENVER/BOULDER CO
1100 PM MST MON MAR 02 2015

NOTE: "FAIR" INDICATES FEW OR NO CLOUDS BELOW 12000 FEET WITH NO
SIGNIFICANT WEATHER AND/OR OBSTRUCTIONS TO VISIBILITY.

COZ001>005-013-030-031-030700-
...NORTHWEST COLORADO...

CITY           SKY/WX    TMP DP  RH WIND       PRES   REMARKS
CRAIG          CLOUDY    35  26  69 SW22G33   29.67R WCI  23
HAYDEN         MOCLDY    34  21  60 SW29G35   29.64S WCI  20
MEEKER         CLOUDY    35  24  64 SW20G30   29.71R WCI  24
MOUNT WERNER   NOT AVBL
STEAMBOAT SPGS FAIR      33  23  67 W10       29.66R WCI  24
WALDEN         CLOUDY    30  21  69 SW16G25   29.60F WCI  19
$$

COZ006>008-011-030700-
...WEST CENTRAL VALLEYS...

CITY           SKY/WX    TMP DP  RH WIND       PRES   REMARKS
GRAND JUNCTION FAIR      37  28  70 E7        29.79R
MONTROSE       MOCLDY    37  24  59 SW20G26   29.88R
EAGLE          FLURRIES  34  30  86 SW22G37   29.74R WCI  22
RIFLE          CLOUDY    35  31  85 NE3       29.77R
DELTA          MOCLDY    40  31  68 W5        29.85S
NUCLA          NOT AVBL
$$

COZ017>023-064>068-030700-
...SOUTHWEST COLORADO...

CITY           SKY/WX    TMP DP  RH WIND       PRES   REMARKS
DURANGO        CLOUDY    32  32 100 W9        29.92F WCI  24
CORTEZ         MOCLDY    34  29  82 S12       29.94R WCI  25
PAGOSA SPRINGS CLOUDY    31  30  96 SW9G16    29.91F WCI  23
TELLURIDE      NOT AVBL
WOLF CREEK PAS CLOUDY    14  12  92 SW36G60   29.81F WCI  -8
$$

COZ009-010-012-014-032>034-037-058>063-030700-
...CENTRAL COLORADO...

CITY           SKY/WX    TMP DP  RH WIND       PRES   REMARKS
ASPEN          CLOUDY    30  23  75 N7G16     29.72R WCI  23
BUENA VISTA    CLOUDY    32  20  60 SW10G22   29.72S WCI  24
COPPER MTN     SNOW      21  12  68 W25G40    29.68F VSB 1/4 WCI   4
BERTHOUD PASS  SNOW      14   9  79 SW12G23   29.67S VSB 1/4 WCI   0
COTTONWOOD PAS CLOUDY    28  14  54 SW15G33   29.71F WCI  17
GUNNISON       FAIR      32  14  47 W29G38    29.81S WCI  18
KREMMLING      LGT SNOW  32  28  86 W22       29.67F WCI  19
LEADVILLE      CLOUDY    24   7  48 SW14G22   29.68F WCI  12
SALIDA         CLOUDY    33  29  86 W12       29.82R WCI  24
SUNLIGHT         N/A     21  19  93 SW3         N/A
WILKERSON PASS CLOUDY    19  16  86 SW20G35   29.67F FOG     WCI   4
$$

COZ069>075-030700-
...SAN LUIS VALLEY/SANGRE DE CRISTO MOUNTAINS...

CITY           SKY/WX    TMP DP  RH WIND       PRES   REMARKS
ALAMOSA        FAIR      32  24  72 SW20      29.81R WCI  20
LA VETA PASS   CLOUDY    27  23  86 S17G32    29.76R FOG     WCI  14
SAGUACHE       CLOUDY    32  28  86 W13       29.78R WCI  22
$$

COZ035-036-038>040-030700-
...NORTHERN COLORADO FRONT RANGE...

CITY           SKY/WX    TMP DP  RH WIND       PRES   REMARKS
DENVER INTL AP MOCLDY    30  24  78 SW10      29.57F HAZE    WCI  21
DMNS CITY PARK   N/A     31  24  75 SE6       29.58F WCI  25
AURORA         NOT AVBL
FRONT RANGE AP NOT AVBL
ERIE MUNI ARPT FAIR      30  26  84 S5        29.56F FOG     WCI  25
BOULDER MUN AP FAIR      32  27  80 SW5       29.56S HAZE    WCI  27
CENTENNIAL     MOCLDY    33  26  75 NW6       29.59S WCI  28
BROOMFIELD     FAIR      32  27  80 S6        29.57S HAZE    WCI  26
FORT COLLINS   FAIR      32  27  80 E9        29.55F WCI  24
LONGMONT       FAIR      32  26  80 S7        29.58S WCI  25
$$

COZ041-046-047-076>085-087-088-030700-
...PIKES PEAK/PALMER DIVIDE AND SOUTHERN FOOTHILLS...

CITY           SKY/WX    TMP DP  RH WIND       PRES   REMARKS
COLO. SPRINGS  MOCLDY    33  28  81 E7        29.64R WCI  27
A. F. ACADEMY  FAIR      39  26  59 W16       29.62S
ELLICOTT       NOT AVBL
FALCON         CLOUDY    35  30  83 SW8       29.66R WCI  28
FORT CARSON    FAIR      30  27  90 NE5       29.62S WCI  25
LIMON          FAIR      34  28  79 SW9       29.57R WCI  27
MONUMENT HILL  FAIR      37  28  70 SW17G25   29.61R
TRINIDAD       FAIR      39  32  76 W15       29.73R
$$

COZ042>045-048>051-090-091-030700-
...NORTHEAST COLORADO...

CITY           SKY/WX    TMP DP  RH WIND       PRES   REMARKS
GREELEY ARPT   FAIR      30  23  74 E8        29.56S WCI  23
AKRON          MOCLDY    27  26  96 NW16      29.57R FOG     WCI  15
BURLINGTON     FAIR      35  31  85 S23       29.53F WCI  23
WRAY           FAIR      31  31 100 N6        29.59R WCI  26
STERLING       CLOUDY    32  30  93 N12       29.60F FOG     WCI  23
HOLYOKE        NOT AVBL
FORT MORGAN    FAIR      28  27  94 N9        29.58F FOG     WCI  19
$$

COZ086-089-092>099-030700-
...SOUTHEAST COLORADO...

CITY           SKY/WX    TMP DP  RH WIND       PRES   REMARKS
PUEBLO         FAIR      29  28  96 CALM      29.62S FOG
LA JUNTA       FAIR      37  31  78 W13       29.63S
LAMAR          FAIR      32  30  92 SW7       29.60S WCI  26
SPRINGFIELD      N/A     45  36  70 SW22G32   29.66F
$$


USA.gov is the U.S. government's official web portal to all federal, state and local government web resources and services.